Skip Page Navigation
NASA JPL Caltech
NASA Logo - Jet Propulsion Laboratory + View the NASA Portal
+ Center for Near-Earth Object Studies
JPL Home Earth Solar System Stars & Galaxies Technology
JPL Solar System Dynamics
BODIES ORBITS EPHEMERIDES TOOLS PHYSICAL DATA DISCOVERY FAQ SITE MAP
IMPORTANT: The SSD Announcement email list is now available. Major changes are coming in the near future, including possible hostname and/or URL changes. To be notified of such changes, subscribe to this email list.

Please visit this page for more details.


JPL Small-Body Database Browser
Search: [ help ]  
27339 (2000 CZ94)
Classification: Main-belt Asteroid          SPK-ID: 2027339
Ephemeris | Orbit Diagram | Orbital Elements | Mission Design | Physical Parameters | Discovery Circumstances ]

[ show orbit diagram ]
Orbital Elements at Epoch 2458600.5 (2019-Apr-27.0) TDB
Reference: JPL 24 (heliocentric ecliptic J2000)
 Element Value Uncertainty (1-sigma)   Units 
e .136337151481624 6.045e-08  
a 2.56983443339518 1.2657e-08 au
q 2.219470526966688 1.6079e-07 au
i 8.147743346868777 5.0371e-06 deg
node 131.5370259371528 2.6838e-05 deg
peri 30.93725549068141 3.039e-05 deg
M 249.73585519557 1.6193e-05 deg
tp 2459061.380099021190
(2020-Jul-30.88009902)
6.9615e-05 TDB
period 1504.721556965836
4.12
1.1117e-05
3.044e-08
d
yr
n .2392469213546155 1.7675e-09 deg/d
Q 2.920198339823671 1.4382e-08 au
  Orbit Determination Parameters
   # obs. used (total)      1514  
   data-arc span      11540 days (31.59 yr)  
   first obs. used      1988-04-24  
   last obs. used      2019-11-28  
   planetary ephem.      DE431  
   SB-pert. ephem.      SB431-N16  
   condition code      0  
   norm. resid. RMS      .53168  
   source      ORB  
   producer      Otto Matic  
   solution date      2019-Dec-04 01:03:15  

Additional Information
 Earth MOID = 1.23321 au 
 Jupiter MOID = 2.07336 au 
 T_jup = 3.403 
[ show covariance matrix ]

Ephemeris | Orbit Diagram | Orbital Elements | Mission Design | Physical Parameters | Discovery Circumstances ]

Physical Parameter Table
Parameter Symbol Value Units Sigma Reference Notes
absolute magnitude H 14.1   n/a MPO365575  
diameter diameter 4.884 km 0.195 urn:nasa:pds:neowise_diameters_albedos::2.0[mainbelt] (http://adsabs.harvard.edu/abs/2011ApJ...741...68M)  
geometric albedo albedo 0.224   0.026 urn:nasa:pds:neowise_diameters_albedos::2.0[mainbelt] (http://adsabs.harvard.edu/abs/2011ApJ...741...68M)  

27339 (2000 CZ94)          Discovered 2000-Feb-08 by LINEAR at Socorro
Reference: 20010804/Numbers.arcLast Updated: 2004-04-19
Ephemeris | Orbit Diagram | Orbital Elements | Mission Design | Physical Parameters | Discovery Circumstances ]
ABOUT SSD CREDITS/AWARDS PRIVACY/COPYRIGHT GLOSSARY LINKS
FirstGov 2019-Dec-10 16:16 UT
(server date/time)  
NASA Home Page
Site Manager:   Ryan S. Park
Webmaster  Alan B. Chamberlin